Starlink 31732

operational
NORAD ID: 60099 Int'l Des: 2024-117 Owner: SPXS Country: US Constellation: starlink
LEOCIRCULAR

About Starlink 31732

Description loading...

Live Position

Loading 3D Globe...

Upcoming Passes

Altitude History

Altitude vs Time

uPlot chart will show altitude changes over time

Two-Line Element Set

1 60099U 24117J 26035.65234182 -.00000367 00000-0 -26694-6 0 9997
2 60099 53.1599 190.1977 0001059 81.7191 278.3930 15.30187902 91833
Epoch: Feb 4, 2026 • Age: 23 hours

Current Status

Altitude 481.6 km
Velocity 7.62 km/s
Sub-Earth Point -21.19°S, 29.3°E
Launch Date Jun 23, 2024
Age 1.6 years
Type internet

Technical Details

Classification Payload
Mass 730.00 kg
Dry Mass 700.00 kg
Total Mass 730.00 kg
Length 0.30 m
Diameter 4.10 m
Span 29.00 m
Shape Box + pan
Manufacturer SPXS
Bus Type Starlink V2M
Phase Status In Orbit
Owner/State SPXS/US

Large Constellations

Loading constellations...